This is the latest recevied weather packets stored in our database for station/object PY3MO-13. If no packets are shown the sender has not sent any weather packets the latest 10 day(s).
| Time | Temp. | Humidity | Pressure | Rain* | Wind** | Luminosity | Snow |
|---|---|---|---|---|---|---|---|
| 1777700870 | 15.56° C | 99% | 1015.1 hPa | 5.59 mm | - | - | - |
| 1777700571 | 15.56° C | 99% | 1015.2 hPa | 5.33 mm | - | - | - |
| 1777700271 | 15.56° C | 99% | 1015.6 hPa | 5.08 mm | - | - | - |
| 1777699971 | 15.56° C | 99% | 1015.7 hPa | 5.08 mm | - | - | - |
| 1777699672 | 15.56° C | 99% | 1015.5 hPa | 5.33 mm | - | - | - |
| 1777699372 | 15.56° C | 99% | 1015.6 hPa | 5.08 mm | - | - | - |
| 1777699071 | 15.56° C | 99% | 1015.4 hPa | 5.08 mm | - | - | - |
| 1777698771 | 15.56° C | 99% | 1015.4 hPa | 4.57 mm | - | - | - |
| 1777698470 | 15.56° C | 99% | 1015.6 hPa | 4.57 mm | - | - | - |
| 1777698172 | 15.56° C | 99% | 1015.2 hPa | 5.08 mm | - | - | - |
| 1777697871 | 15.56° C | 99% | 1015 hPa | 5.84 mm | - | - | - |
| 1777697571 | 15.56° C | 99% | 1015 hPa | 6.1 mm | - | - | - |
| 1777697270 | 15.56° C | 99% | 1014.9 hPa | 6.35 mm | - | - | - |
| 1777696972 | 15.56° C | 99% | 1014.6 hPa | 7.11 mm | - | - | - |
| 1777696671 | 15.56° C | 99% | 1014.3 hPa | 6.86 mm | - | - | - |
| 1777696371 | 15.56° C | 99% | 1014.6 hPa | 7.11 mm | - | - | - |
| 1777696070 | 15.56° C | 99% | 1014.9 hPa | 7.11 mm | - | - | - |
| 1777695772 | 15.56° C | 99% | 1014.9 hPa | 7.62 mm | - | - | - |
| 1777695471 | 15.56° C | 99% | 1015.3 hPa | 7.87 mm | - | - | - |
| 1777695171 | 15.56° C | 99% | 1015.5 hPa | 7.87 mm | - | - | - |
| 1777694871 | 15.56° C | 99% | 1015.6 hPa | 8.38 mm | - | - | - |
| 1777694570 | 15.56° C | 99% | 1015.5 hPa | 8.64 mm | - | - | - |
| 1777694272 | 15.56° C | 99% | 1016.3 hPa | 7.62 mm | - | - | - |
| 1777693971 | 15.56° C | 99% | 1016.2 hPa | 7.37 mm | - | - | - |
| 1777693671 | 15.56° C | 99% | 1015.6 hPa | 7.11 mm | - | - | - |
* Rain latest hour (hover to see other rain measurements)
** Current wind speed in m/s (hover to see current wind gust speed)